Weather History for Port Lavaca, TX

Change the Weather History Date:

Tuesday, September 10, 2013

  Actual Average (KVCT) Record (KVCT)
Temperature  
Mean Temperature 81 °F 81 °F  
Max Temperature 87 °F 92 °F 103 °F (1940)
Min Temperature 75 °F 71 °F 61 °F (1918)
Degree Days  
Heating Degree Days 0 0  
Month to date heating degree days 0  
Since 1 July heating degree days 0  
Cooling Degree Days 16 16  
Month to date cooling degree days 171  
Year to date cooling degree days 2524  
Growing Degree Days 31 (Base 50)    
Moisture  
Dew Point 74 °F    
Average Humidity 80    
Maximum Humidity 92    
Minimum Humidity 66    
Precipitation  
Precipitation 0.05 in 0.16 in 4.33 in (1971)
Month to date precipitation 1.52  
Year to date precipitation 28.39  
Snow  
Snow 0.00 in - - ()
Month to date snowfall  
Since 1 July snowfall  
Since 1 September snowfall  
Snow Depth -    
Sea Level Pressure  
Sea Level Pressure 29.98 in    
Wind  
Wind Speed 8 mph (ESE)    
Max Wind Speed 18 mph    
Max Gust Speed 24 mph    
Visibility 10 miles    
Events Rain    
T = Trace of Precipitation, MM = Missing Value Source: NWS Daily Summary

Daily Weather History Graph

Daily Weather History Graph

Search for Another Location

Airport:

Trip Planner

Search our weather history database for the weather conditions in past years. The results will help you decide how hot, cold, wet, or windy it might be!

Date:

Astronomy

Sep. 10, 2013 Rise Set
Actual Time 7:09 AM CDT 7:37 PM CDT
Civil Twilight 6:45 AM CDT 8:01 PM CDT
Nautical Twilight 6:17 AM CDT 8:28 PM CDT
Astronomical Twilight 5:49 AM CDT 8:56 PM CDT
Moon 12:07 PM CDT (9/10) 11:10 PM CDT (9/10)
Length of Visible Light 13h 15m
Length of Day
12h 27m
Waxing Crescent, 28% of the Moon is Illuminated
Sep 10
Waxing Crescent
Sep 12
First Quarter
Sep 19
Full
Sep 26
Last Quarter
Oct 4
New

Hourly Weather History & Observations

Time (CDT) Temp. Heat Index Dew Point Humidity Pressure Visibility Wind Dir Wind Speed Gust Speed Precip Events Conditions
12:15 AM 75.4 °F - 72.0 °F 89% 29.96 in 10.0 mi ESE 5.8 mph - N/A   Clear
12:35 AM 76.1 °F - 72.1 °F 87% 29.96 in 10.0 mi ESE 4.6 mph - N/A   Clear
12:55 AM 76.1 °F - 72.1 °F 87% 29.96 in 10.0 mi SE 4.6 mph - N/A   Clear
1:15 AM 76.3 °F - 72.1 °F 87% 29.96 in 10.0 mi SE 3.5 mph - N/A   Clear
1:35 AM 76.1 °F - 72.3 °F 88% 29.96 in 10.0 mi ESE 4.6 mph - N/A   Clear
1:55 AM 76.1 °F - 72.1 °F 87% 29.96 in 10.0 mi ESE 4.6 mph - N/A   Clear
2:15 AM 76.3 °F - 72.0 °F 86% 29.96 in 10.0 mi ESE 4.6 mph - N/A   Clear
2:35 AM 76.3 °F - 71.6 °F 85% 29.95 in 10.0 mi ESE 5.8 mph - N/A   Clear
2:55 AM 76.5 °F - 71.1 °F 83% 29.95 in 10.0 mi SE 5.8 mph - N/A   Clear
3:15 AM 76.5 °F - 70.9 °F 83% 29.95 in 10.0 mi ESE 4.6 mph - N/A   Scattered Clouds
3:35 AM 76.3 °F - 72.7 °F 89% 29.95 in 10.0 mi NE 4.6 mph - N/A   Scattered Clouds
3:55 AM 76.1 °F - 72.9 °F 90% 29.95 in 10.0 mi East 3.5 mph - N/A   Scattered Clouds
4:15 AM 76.8 °F - 72.7 °F 87% 29.95 in 10.0 mi East 4.6 mph - N/A   Scattered Clouds
4:35 AM 76.3 °F - 73.0 °F 90% 29.95 in 10.0 mi East 3.5 mph - N/A   Scattered Clouds
4:55 AM 76.3 °F - 73.4 °F 91% 29.95 in 10.0 mi ENE 3.5 mph - N/A   Scattered Clouds
5:15 AM 76.3 °F - 73.6 °F 91% 29.95 in 10.0 mi NE 4.6 mph - N/A   Mostly Cloudy
5:35 AM 76.1 °F - 73.6 °F 92% 29.95 in 10.0 mi ENE 5.8 mph - N/A   Scattered Clouds
5:55 AM 76.6 °F - 74.1 °F 92% 29.96 in 7.0 mi East 13.8 mph - 0.01 in Rain Rain
6:15 AM 76.6 °F - 73.9 °F 91% 29.97 in 10.0 mi East 8.1 mph - N/A   Scattered Clouds
6:35 AM 76.3 °F - 73.6 °F 91% 29.97 in 10.0 mi East 6.9 mph - N/A   Clear
6:55 AM 76.3 °F - 73.4 °F 91% 29.98 in 10.0 mi East 6.9 mph - N/A   Clear
7:15 AM 76.3 °F - 73.6 °F 91% 29.98 in 10.0 mi ENE 6.9 mph - N/A   Clear
7:35 AM 76.3 °F - 73.9 °F 92% 29.98 in 10.0 mi ENE 6.9 mph - N/A   Clear
7:55 AM 77.0 °F - 74.7 °F 92% 29.98 in 7.0 mi East 8.1 mph - N/A   Clear
8:15 AM 77.7 °F - 75.2 °F 92% 29.98 in 10.0 mi ENE 8.1 mph - N/A   Clear
8:35 AM 78.6 °F - 75.4 °F 90% 29.99 in 10.0 mi ENE 8.1 mph - N/A   Clear
8:55 AM 79.2 °F - 74.8 °F 87% 30.00 in 10.0 mi East 10.4 mph - N/A   Scattered Clouds
9:15 AM 79.3 °F - 74.1 °F 84% 30.01 in 7.0 mi SE 11.5 mph - 0.01 in Rain Rain
9:35 AM 79.0 °F - 73.6 °F 83% 30.01 in 10.0 mi East 5.8 mph - 0.04 in   Overcast
9:55 AM 79.5 °F - 74.5 °F 84% 30.01 in 10.0 mi East 4.6 mph - 0.04 in   Scattered Clouds
10:15 AM 82.8 °F 91.3 °F 76.8 °F 82% 30.01 in 10.0 mi East 8.1 mph - N/A   Scattered Clouds
10:35 AM 84.4 °F 93.9 °F 76.6 °F 77% 30.01 in 10.0 mi East 12.7 mph - N/A   Mostly Cloudy
10:55 AM 85.1 °F 94.9 °F 76.3 °F 75% 30.02 in 10.0 mi East 15.0 mph - N/A   Scattered Clouds
11:15 AM 84.4 °F 93.5 °F 75.9 °F 76% 30.03 in 10.0 mi East 13.8 mph - N/A   Scattered Clouds
11:35 AM 86.0 °F 95.5 °F 75.6 °F 71% 30.03 in 10.0 mi ESE 15.0 mph - N/A   Scattered Clouds
11:55 AM 86.9 °F 96.4 °F 75.4 °F 68% 30.02 in 10.0 mi ESE 17.3 mph 23.0 mph N/A   Clear
12:15 PM 86.9 °F 98.3 °F 76.8 °F 72% 30.03 in 10.0 mi ESE 15.0 mph 23.0 mph N/A   Scattered Clouds
12:35 PM 86.9 °F 97.8 °F 76.5 °F 71% 30.02 in 10.0 mi ESE 15.0 mph 21.9 mph N/A   Scattered Clouds
12:55 PM 86.7 °F 96.9 °F 75.9 °F 70% 30.03 in 10.0 mi East 15.0 mph 18.4 mph N/A   Scattered Clouds
1:15 PM 87.4 °F 98.7 °F 76.6 °F 70% 30.02 in 10.0 mi ESE 15.0 mph 20.7 mph N/A   Scattered Clouds
1:35 PM 86.5 °F 96.4 °F 75.6 °F 70% 30.01 in 10.0 mi ESE 17.3 mph - N/A   Scattered Clouds
1:55 PM 85.6 °F 95.0 °F 75.6 °F 72% 30.00 in 10.0 mi ESE 16.1 mph - N/A   Scattered Clouds
2:15 PM 86.9 °F 97.8 °F 76.5 °F 71% 30.00 in 10.0 mi ESE 15.0 mph 21.9 mph N/A   Scattered Clouds
2:35 PM 86.4 °F 96.0 °F 75.6 °F 70% 29.99 in 10.0 mi ESE 16.1 mph 21.9 mph N/A   Scattered Clouds
2:55 PM 85.8 °F 95.5 °F 75.7 °F 72% 29.99 in 10.0 mi ESE 17.3 mph 24.2 mph N/A   Scattered Clouds
3:15 PM 85.3 °F 94.2 °F 75.2 °F 72% 29.99 in 10.0 mi ESE 17.3 mph 21.9 mph N/A   Clear
3:35 PM 87.3 °F 97.2 °F 75.6 °F 68% 29.98 in 10.0 mi ESE 15.0 mph 24.2 mph N/A   Clear
3:55 PM 86.7 °F 95.0 °F 74.3 °F 66% 29.98 in 10.0 mi ESE 18.4 mph 21.9 mph N/A   Clear
4:15 PM 86.0 °F 95.1 °F 75.2 °F 70% 29.98 in 10.0 mi ESE 17.3 mph 23.0 mph N/A   Clear
4:35 PM 87.4 °F 97.7 °F 75.7 °F 68% 29.97 in 10.0 mi ESE 18.4 mph - N/A   Clear
4:55 PM 85.6 °F 94.2 °F 74.8 °F 70% 29.98 in 10.0 mi ESE 15.0 mph 20.7 mph N/A   Scattered Clouds
5:15 PM 84.7 °F 92.8 °F 74.7 °F 72% 29.98 in 10.0 mi ESE 11.5 mph 17.3 mph N/A   Clear
5:35 PM 84.7 °F 92.5 °F 74.5 °F 71% 29.98 in 10.0 mi ESE 13.8 mph 18.4 mph N/A   Clear
5:55 PM 84.4 °F 91.0 °F 73.4 °F 69% 29.97 in 10.0 mi East 13.8 mph - N/A   Clear
6:15 PM 84.2 °F 90.9 °F 73.4 °F 70% 29.97 in 10.0 mi ESE 13.8 mph 19.6 mph N/A   Clear
6:35 PM 83.5 °F 90.3 °F 73.9 °F 73% 29.98 in 10.0 mi East 12.7 mph - N/A   Scattered Clouds
6:55 PM 82.9 °F 89.4 °F 73.9 °F 74% 29.98 in 10.0 mi ESE 11.5 mph - N/A   Clear
7:15 PM 82.9 °F 89.4 °F 73.9 °F 74% 29.99 in 10.0 mi ESE 11.5 mph - N/A   Scattered Clouds
7:55 PM 81.5 °F 87.2 °F 73.9 °F 78% 29.99 in 10.0 mi ESE 6.9 mph - N/A   Clear
8:35 PM 80.8 °F 86.1 °F 74.5 °F 81% 29.99 in 10.0 mi ESE 9.2 mph - N/A   Clear
10:35 PM 80.6 °F 85.7 °F 74.3 °F 81% 30.02 in 10.0 mi SE 5.8 mph - N/A   Clear
11:55 PM 80.8 °F 86.3 °F 74.7 °F 82% 30.02 in 10.0 mi East 5.8 mph - N/A   Scattered Clouds